Find Starlink 32276

NORAD ID: 60944 Int'l Des: 2024-155 Owner: SPXS Country: US Constellation: starlink operational
LEOCIRCULAR

当前视图

正在加载3D地球...

About Starlink 32276

Starlink 32276 (NORAD 60944) is a starlink constellation satellite (v2 mini) launched Aug 31, 2024 by SPXS of US. It operates in LEO, CIRCULAR orbit with a mass of 730.00 kg.

即将过境

Passes for default location (London). Set your location on the main map for personalized predictions.

高度历史

Loading altitude history...

两行轨道根数

1 60944U 24155W 26237.93987075 .00001532 00000-0 56469-4 0 9993
2 60944 53.1566 61.3995 0001323 81.6008 278.5144 15.34395061112334
Epoch: Aug 25, 2026 • Age: 11 hours

当前状态

高度 466.0 km
远地点 / 近地点 N/A
速度 7.64 km/s
星下点 41.91°N, 71.97°E
发射日期 Aug 31, 2024
运行时间 1.9 years
类型 internet

技术详情

分类 Payload
质量 730.00 kg
干质量 700.00 kg
总质量 730.00 kg
长度 0.30 m
直径 4.10 m
跨度 29.00 m
形状 Box + pan
制造商 SPXS
平台类型 Starlink V2M
阶段状态 In Orbit
所有者/国家 SPXS/US

Most Searched